(°C)
13°
16°
19°
21°
(°C)
11°
15°
17°
19°
JI
JI
JJI
J
JJZ
ZJZ
ZSZ
(km/h)
5-7
5-7
4-8
4-9
3-11
5-12
6-14
(mm)
0
0
0
0
0
0
0
(%)
0
0
0
0
0
0
0

Podizanje Sunca

/ -7.7°
sun-icon
UV 13
06:06
20:14
Rastući mesec (130°)
17:54
01:46

METAR za Волден (K33V)

Vreme Uslovi Temperatura/
Tačka rose
Vetar Vidljivost Prognoza Oblaci Pritisak Promena Neobrađeno
VFR 5°C / 3°C 140º 6kt >10km - Clear - K33V 081115Z AUTO 14006KT 10SM CLR 05/03 A3046 RMK AO1
VFR 5°C / 4°C 140º 5kt >10km - Clear - K33V 081055Z AUTO 14005KT 10SM CLR 05/04 A3046 RMK AO1
VFR 8°C / 5°C 150º 6kt >10km - Clear - K33V 081035Z AUTO 15006KT 10SM CLR 08/05 A3046 RMK AO1
VFR 9°C / 6°C variable 0kt >10km - Clear - K33V 081015Z AUTO 00000KT 10SM CLR 09/06 A3046 RMK AO1
VFR 9°C / 5°C variable 0kt >10km - Clear - K33V 080955Z AUTO 00000KT 10SM CLR 09/05 A3046 RMK AO1
VFR 9°C / 6°C 220º 3kt >10km - Clear - K33V 080935Z AUTO 22003KT 10SM CLR 09/06 A3046 RMK AO1
VFR 7°C / 6°C 170º 3kt >10km - Clear - K33V 080915Z AUTO 17003KT 10SM CLR 07/06 A3046 RMK AO1
VFR 7°C / 6°C 140º 4kt >10km - Clear - K33V 080855Z AUTO 14004KT 10SM CLR 07/06 A3046 RMK AO1
VFR 7°C / 6°C 140º 6kt >10km - Clear - K33V 080835Z AUTO 14006KT 10SM CLR 07/06 A3046 RMK AO1
VFR 7°C / 6°C 130º 4kt >10km - Clear - K33V 080815Z AUTO 13004KT 10SM CLR 07/06 A3046 RMK AO1
VFR 7°C / 6°C 130º 6kt >10km - Clear - K33V 080755Z AUTO 13006KT 10SM CLR 07/06 A3046 RMK AO1
VFR 8°C / 6°C 130º 5kt >10km - Clear - K33V 080735Z AUTO 13005KT 10SM CLR 08/06 A3046 RMK AO1
VFR 8°C / 6°C 130º 5kt >10km - Clear - K33V 080715Z AUTO 13005KT 10SM CLR 08/06 A3046 RMK AO1
VFR 8°C / 7°C 120º 4kt >10km - Clear - K33V 080655Z AUTO 12004KT 10SM CLR 08/07 A3046 RMK AO1
VFR 9°C / 7°C 130º 5kt >10km - Clear - K33V 080635Z AUTO 13005KT 10SM CLR 09/07 A3046 RMK AO1
VFR 8°C / 7°C 140º 4kt >10km - Clear - K33V 080615Z AUTO 14004KT 10SM CLR 08/07 A3046 RMK AO1
VFR 10°C / 7°C 140º 5kt >10km - Clear - K33V 080555Z AUTO 14005KT 10SM CLR 10/07 A3046 RMK AO1
VFR 11°C / 8°C variable 0kt >10km - Clear - K33V 080535Z AUTO 00000KT 10SM CLR 11/08 A3045 RMK AO1
VFR 10°C / 7°C variable 0kt >10km - Clear - K33V 080515Z AUTO 00000KT 10SM CLR 10/07 A3046 RMK AO1
VFR 13°C / 7°C 240º 3kt >10km - Clear - K33V 080455Z AUTO 24003KT 10SM CLR 13/07 A3046 RMK AO1
VFR 13°C / 7°C variable 0kt >10km - Clear - K33V 080435Z AUTO 00000KT 10SM CLR 13/07 A3046 RMK AO1
VFR 13°C / 7°C 180º 3kt >10km - Clear - K33V 080415Z AUTO 18003KT 10SM CLR 13/07 A3046 RMK AO1
VFR 15°C / 8°C 90º 3kt >10km - Clear - K33V 080355Z AUTO 09003KT 10SM CLR 15/08 A3046 RMK AO1
VFR 15°C / 7°C 50º 6kt >10km - Clear - K33V 080335Z AUTO 05006KT 10SM CLR 15/07 A3045 RMK AO1

VFR

5°C / 3°C

[Više]
Vetar 140º 6kt
Vidljivost >10km
Prognoza -
Oblaci Clear
Pritisak
Promena -
Neobrađeno K33V 081115Z AUTO 14006KT 10SM CLR 05/03 A3046 RMK AO1

VFR

5°C / 4°C

[Više]
Vetar 140º 5kt
Vidljivost >10km
Prognoza -
Oblaci Clear
Pritisak
Promena -
Neobrađeno K33V 081055Z AUTO 14005KT 10SM CLR 05/04 A3046 RMK AO1

VFR

8°C / 5°C

[Više]
Vetar 150º 6kt
Vidljivost >10km
Prognoza -
Oblaci Clear
Pritisak
Promena -
Neobrađeno K33V 081035Z AUTO 15006KT 10SM CLR 08/05 A3046 RMK AO1

VFR

9°C / 6°C

[Više]
Vetar variable 0kt
Vidljivost >10km
Prognoza -
Oblaci Clear
Pritisak
Promena -
Neobrađeno K33V 081015Z AUTO 00000KT 10SM CLR 09/06 A3046 RMK AO1

VFR

9°C / 5°C

[Više]
Vetar variable 0kt
Vidljivost >10km
Prognoza -
Oblaci Clear
Pritisak
Promena -
Neobrađeno K33V 080955Z AUTO 00000KT 10SM CLR 09/05 A3046 RMK AO1

VFR

9°C / 6°C

[Više]
Vetar 220º 3kt
Vidljivost >10km
Prognoza -
Oblaci Clear
Pritisak
Promena -
Neobrađeno K33V 080935Z AUTO 22003KT 10SM CLR 09/06 A3046 RMK AO1

VFR

7°C / 6°C

[Više]
Vetar 170º 3kt
Vidljivost >10km
Prognoza -
Oblaci Clear
Pritisak
Promena -
Neobrađeno K33V 080915Z AUTO 17003KT 10SM CLR 07/06 A3046 RMK AO1

VFR

7°C / 6°C

[Više]
Vetar 140º 4kt
Vidljivost >10km
Prognoza -
Oblaci Clear
Pritisak
Promena -
Neobrađeno K33V 080855Z AUTO 14004KT 10SM CLR 07/06 A3046 RMK AO1

VFR

7°C / 6°C

[Više]
Vetar 140º 6kt
Vidljivost >10km
Prognoza -
Oblaci Clear
Pritisak
Promena -
Neobrađeno K33V 080835Z AUTO 14006KT 10SM CLR 07/06 A3046 RMK AO1

VFR

7°C / 6°C

[Više]
Vetar 130º 4kt
Vidljivost >10km
Prognoza -
Oblaci Clear
Pritisak
Promena -
Neobrađeno K33V 080815Z AUTO 13004KT 10SM CLR 07/06 A3046 RMK AO1

VFR

7°C / 6°C

[Više]
Vetar 130º 6kt
Vidljivost >10km
Prognoza -
Oblaci Clear
Pritisak
Promena -
Neobrađeno K33V 080755Z AUTO 13006KT 10SM CLR 07/06 A3046 RMK AO1

VFR

8°C / 6°C

[Više]
Vetar 130º 5kt
Vidljivost >10km
Prognoza -
Oblaci Clear
Pritisak
Promena -
Neobrađeno K33V 080735Z AUTO 13005KT 10SM CLR 08/06 A3046 RMK AO1

VFR

8°C / 6°C

[Više]
Vetar 130º 5kt
Vidljivost >10km
Prognoza -
Oblaci Clear
Pritisak
Promena -
Neobrađeno K33V 080715Z AUTO 13005KT 10SM CLR 08/06 A3046 RMK AO1

VFR

8°C / 7°C

[Više]
Vetar 120º 4kt
Vidljivost >10km
Prognoza -
Oblaci Clear
Pritisak
Promena -
Neobrađeno K33V 080655Z AUTO 12004KT 10SM CLR 08/07 A3046 RMK AO1

VFR

9°C / 7°C

[Više]
Vetar 130º 5kt
Vidljivost >10km
Prognoza -
Oblaci Clear
Pritisak
Promena -
Neobrađeno K33V 080635Z AUTO 13005KT 10SM CLR 09/07 A3046 RMK AO1

VFR

8°C / 7°C

[Više]
Vetar 140º 4kt
Vidljivost >10km
Prognoza -
Oblaci Clear
Pritisak
Promena -
Neobrađeno K33V 080615Z AUTO 14004KT 10SM CLR 08/07 A3046 RMK AO1

VFR

10°C / 7°C

[Više]
Vetar 140º 5kt
Vidljivost >10km
Prognoza -
Oblaci Clear
Pritisak
Promena -
Neobrađeno K33V 080555Z AUTO 14005KT 10SM CLR 10/07 A3046 RMK AO1

VFR

11°C / 8°C

[Više]
Vetar variable 0kt
Vidljivost >10km
Prognoza -
Oblaci Clear
Pritisak
Promena -
Neobrađeno K33V 080535Z AUTO 00000KT 10SM CLR 11/08 A3045 RMK AO1

VFR

10°C / 7°C

[Više]
Vetar variable 0kt
Vidljivost >10km
Prognoza -
Oblaci Clear
Pritisak
Promena -
Neobrađeno K33V 080515Z AUTO 00000KT 10SM CLR 10/07 A3046 RMK AO1

VFR

13°C / 7°C

[Više]
Vetar 240º 3kt
Vidljivost >10km
Prognoza -
Oblaci Clear
Pritisak
Promena -
Neobrađeno K33V 080455Z AUTO 24003KT 10SM CLR 13/07 A3046 RMK AO1

VFR

13°C / 7°C

[Više]
Vetar variable 0kt
Vidljivost >10km
Prognoza -
Oblaci Clear
Pritisak
Promena -
Neobrađeno K33V 080435Z AUTO 00000KT 10SM CLR 13/07 A3046 RMK AO1

VFR

13°C / 7°C

[Više]
Vetar 180º 3kt
Vidljivost >10km
Prognoza -
Oblaci Clear
Pritisak
Promena -
Neobrađeno K33V 080415Z AUTO 18003KT 10SM CLR 13/07 A3046 RMK AO1

VFR

15°C / 8°C

[Više]
Vetar 90º 3kt
Vidljivost >10km
Prognoza -
Oblaci Clear
Pritisak
Promena -
Neobrađeno K33V 080355Z AUTO 09003KT 10SM CLR 15/08 A3046 RMK AO1

VFR

15°C / 7°C

[Više]
Vetar 50º 6kt
Vidljivost >10km
Prognoza -
Oblaci Clear
Pritisak
Promena -
Neobrađeno K33V 080335Z AUTO 05006KT 10SM CLR 15/07 A3045 RMK AO1

Radar i padavine kratka prognoza za Волден

Rominjati
Lak
Umjereno
Teška
Vrlo teško
Zdravo

Marker lokacije postavljen je na Волден. Ova animacija prikazuje radar padavina za poslednji sat, kao i 1h prognozu. Kiša ili slab snijeg mogu biti nevidljivi za radar. Intenzitet padavina je označen bojom, u rasponu od svetloplave do narandžaste.

Trenutni satelitski snimci za Волден, Сједињене Државе

Marker lokacije postavljen je na Волден. [Više]

Satelitski snimci u realnom vremenu kombinuju vidljivu svetlost tokom dana sa infracrvenim zračenjem tokom noći. Noću slika nije tamna jer infracrveno zračenje može otkriti temperaturne razlike. Nažalost, niski oblaci i magla teško se mogu razlikovati od temperature zemlje tako da mogu biti skoro nevidljivi tokom noći. Meteosat satelitski snimci za Evropu se ažuriraju u realnom vremenu na svakih 5 minuta. Slnimci GOES-16/GOES-17 (Severna i Južna Amerika) and Himawari (Azia) ažuriraju se na svakih 10 minuta.

Nazad na vrh